| time (UTC) | temp F | wind direction | speed knots | gust knots | rain 1hr in | rain 24hr in | rain mn in | humidity % | barometer mb |
| 20260906012033 | 81 | 0 | 0.9 | 5.2 | 0.00 | 0.51 | 0.51 | 83 | 1011.8 |
| 20260906011550 | 81 | 171 | 2.6 | 5.2 | 0.00 | 0.51 | 0.51 | 83 | 1011.7 |
| 20260906011031 | 81 | 159 | 2.6 | 5.2 | 0.00 | 0.51 | 0.51 | 83 | 1011.6 |
| 20260906010531 | 81 | 169 | 2.6 | 5.2 | 0.00 | 0.51 | 0.51 | 83 | 1011.5 |
| 20260906010050 | 81 | 146 | 1.7 | 4.3 | 0.00 | 0.51 | 0.51 | 83 | 1011.7 |
| 20260906005531 | 81 | 182 | 0.9 | 3.5 | 0.00 | 0.51 | 0.51 | 84 | 1011.7 |
| 20260906005033 | 81 | 176 | 0.9 | 3.5 | 0.00 | 0.51 | 0.51 | 84 | 1011.8 |
| 20260906004602 | 81 | 155 | 0.9 | 1.7 | 0.00 | 0.51 | 0.51 | 84 | 1011.8 |
| 20260906004032 | 81 | 171 | 0.0 | 1.7 | 0.00 | 0.51 | 0.51 | 84 | 1011.7 |
| 20260906003534 | 81 | 171 | 0.0 | 1.7 | 0.00 | 0.51 | 0.51 | 84 | 1011.6 |
| 20260906003109 | 81 | 0 | 0.0 | 1.7 | 0.00 | 0.51 | 0.51 | 84 | 1011.6 |
| 20260906002531 | 81 | 171 | 0.0 | 3.5 | 0.00 | 0.51 | 0.51 | 83 | 1011.5 |
| 20260906002036 | 82 | 0 | 0.9 | 3.5 | 0.00 | 0.51 | 0.51 | 83 | 1011.4 |
| 20260906001551 | 82 | 177 | 0.9 | 3.5 | 0.00 | 0.51 | 0.51 | 83 | 1011.5 |
| 20260906001036 | 82 | 0 | 0.9 | 3.5 | 0.00 | 0.51 | 0.51 | 83 | 1011.6 |
| 20260906000531 | 82 | 185 | 0.9 | 3.5 | 0.00 | 0.51 | 0.51 | 82 | 1011.6 |
| 20260906000106 | 82 | 176 | 0.9 | 3.5 | 0.00 | 0.51 | 0.51 | 82 | 1011.8 |
| 20260905235532 | 82 | 176 | 0.9 | 3.5 | 0.00 | 0.51 | 0.51 | 81 | 1011.7 |
| 20260905235034 | 83 | 179 | 0.0 | 0.9 | 0.00 | 0.51 | 0.51 | 81 | 1011.7 |
| 20260905234606 | 83 | 0 | 0.0 | 3.5 | 0.00 | 0.51 | 0.51 | 81 | 1011.7 |
| 20260905234034 | 83 | 0 | 0.0 | 3.5 | 0.00 | 0.51 | 0.51 | 80 | 1011.7 |
| 20260905233534 | 83 | 192 | 0.9 | 3.5 | 0.00 | 0.51 | 0.51 | 80 | 1011.6 |
| 20260905233053 | 83 | 153 | 0.9 | 3.5 | 0.00 | 0.51 | 0.51 | 80 | 1011.6 |
| 20260905232533 | 83 | 0 | 0.9 | 2.6 | 0.00 | 0.51 | 0.51 | 80 | 1011.5 |
| 20260905232033 | 84 | 150 | 0.9 | 2.6 | 0.00 | 0.51 | 0.51 | 80 | 1011.6 |
| 20260905231600 | 84 | 150 | 0.9 | 3.5 | 0.00 | 0.51 | 0.51 | 79 | 1011.7 |
| 20260905231032 | 84 | 146 | 0.9 | 4.3 | 0.00 | 0.51 | 0.51 | 79 | 1011.7 |
| 20260905230535 | 84 | 144 | 1.7 | 4.3 | 0.00 | 0.51 | 0.51 | 78 | 1011.6 |
| 20260905230104 | 84 | 157 | 1.7 | 3.5 | 0.00 | 0.51 | 0.51 | 77 | 1011.6 |
| 20260905225533 | 84 | 153 | 0.9 | 3.5 | 0.00 | 0.51 | 0.51 | 77 | 1011.6 |
| 20260905225033 | 84 | 0 | 0.0 | 2.6 | 0.00 | 0.51 | 0.51 | 77 | 1011.7 |
| 20260905224552 | 84 | 146 | 0.9 | 2.6 | 0.00 | 0.51 | 0.51 | 76 | 1011.7 |
| 20260905224033 | 84 | 144 | 0.9 | 2.6 | 0.00 | 0.51 | 0.51 | 76 | 1011.8 |
| 20260905223532 | 84 | 157 | 0.9 | 2.6 | 0.00 | 0.51 | 0.51 | 76 | 1011.7 |
| 20260905223049 | 84 | 0 | 0.0 | 1.7 | 0.00 | 0.51 | 0.51 | 75 | 1011.8 |
| 20260905222533 | 84 | 189 | 0.0 | 3.5 | 0.00 | 0.51 | 0.51 | 77 | 1011.9 |
| 20260905222032 | 84 | 0 | 0.0 | 4.3 | 0.00 | 0.51 | 0.51 | 77 | 1012.0 |
| 20260905221557 | 85 | 157 | 0.9 | 4.3 | 0.00 | 0.51 | 0.51 | 76 | 1011.9 |
| 20260905221032 | 85 | 144 | 1.7 | 5.2 | 0.00 | 0.51 | 0.51 | 76 | 1012.0 |
| 20260905220531 | 85 | 159 | 1.7 | 7.0 | 0.00 | 0.51 | 0.51 | 76 | 1012.1 |
| 20260905220055 | 85 | 169 | 2.6 | 7.8 | 0.00 | 0.51 | 0.51 | 76 | 1012.2 |
| 20260905215532 | 85 | 171 | 3.5 | 7.8 | 0.00 | 0.51 | 0.51 | 74 | 1012.1 |
| 20260905215036 | 86 | 197 | 2.6 | 5.2 | 0.00 | 0.51 | 0.51 | 75 | 1012.1 |
| 20260905214549 | 86 | 173 | 2.6 | 5.2 | 0.00 | 0.51 | 0.51 | 75 | 1012.1 |
| 20260905214032 | 86 | 178 | 2.6 | 5.2 | 0.00 | 0.51 | 0.51 | 73 | 1012.1 |
| 20260905213532 | 86 | 204 | 1.7 | 4.3 | 0.00 | 0.51 | 0.51 | 75 | 1012.3 |
| 20260905213050 | 86 | 194 | 1.7 | 5.2 | 0.00 | 0.51 | 0.51 | 74 | 1012.3 |
| 20260905212536 | 86 | 0 | 1.7 | 5.2 | 0.00 | 0.51 | 0.51 | 76 | 1012.4 |
| 20260905212033 | 86 | 178 | 1.7 | 5.2 | 0.00 | 0.51 | 0.51 | 75 | 1012.4 |
| 20260905211558 | 85 | 196 | 1.7 | 5.2 | 0.00 | 0.51 | 0.51 | 76 | 1012.5 |
| 20260905211034 | 85 | 183 | 2.6 | 5.2 | 0.00 | 0.51 | 0.51 | 78 | 1012.4 |
| 20260905210537 | 85 | 181 | 2.6 | 5.2 | 0.00 | 0.51 | 0.51 | 79 | 1012.4 |
| 20260905210055 | 84 | 194 | 0.9 | 5.2 | 0.00 | 0.51 | 0.51 | 81 | 1012.3 |
| 20260905205534 | 83 | 192 | 1.7 | 5.2 | 0.00 | 0.51 | 0.51 | 82 | 1012.4 |
| 20260905205033 | 83 | 175 | 2.6 | 5.2 | 0.00 | 0.51 | 0.51 | 81 | 1012.3 |
| 20260905204559 | 82 | 172 | 1.7 | 5.2 | 0.00 | 0.51 | 0.51 | 83 | 1012.2 |
| 20260905204032 | 81 | 184 | 1.7 | 6.1 | 0.01 | 0.51 | 0.51 | 85 | 1012.3 |
| 20260905203534 | 80 | 171 | 1.7 | 7.8 | 0.01 | 0.51 | 0.51 | 88 | 1012.4 |
| 20260905203100 | 80 | 147 | 3.5 | 7.8 | 0.01 | 0.51 | 0.51 | 87 | 1012.4 |
| 20260905202532 | 80 | 144 | 3.5 | 6.1 | 0.02 | 0.51 | 0.51 | 87 | 1012.4 |
| 20260905202033 | 79 | 157 | 2.6 | 5.2 | 0.03 | 0.51 | 0.51 | 87 | 1012.5 |
| 20260905201557 | 79 | 160 | 2.6 | 6.1 | 0.04 | 0.51 | 0.51 | 87 | 1012.4 |
| 20260905201032 | 79 | 144 | 2.6 | 6.1 | 0.06 | 0.51 | 0.51 | 87 | 1012.4 |
| 20260905200534 | 79 | 151 | 2.6 | 6.1 | 0.06 | 0.51 | 0.51 | 87 | 1012.7 |
| 20260905200059 | 79 | 132 | 1.7 | 6.1 | 0.08 | 0.51 | 0.51 | 87 | 1012.8 |
| 20260905195532 | 79 | 140 | 1.7 | 6.1 | 0.15 | 0.51 | 0.51 | 87 | 1012.8 |
| 20260905195033 | 79 | 96 | 2.6 | 8.7 | 0.31 | 0.51 | 0.51 | 87 | 1013.0 |
| 20260905194550 | 79 | 101 | 1.7 | 8.7 | 0.42 | 0.51 | 0.51 | 87 | 1012.9 |
| 20260905194036 | 79 | 105 | 2.6 | 5.2 | 0.43 | 0.50 | 0.50 | 87 | 1012.9 |
| 20260905193533 | 79 | 109 | 1.7 | 6.1 | 0.49 | 0.50 | 0.50 | 87 | 1013.0 |
| 20260905193108 | 79 | 79 | 1.7 | 8.7 | 0.50 | 0.50 | 0.50 | 86 | 1013.1 |
| 20260905192532 | 79 | 122 | 3.5 | 8.7 | 0.49 | 0.49 | 0.49 | 86 | 1013.1 |
| 20260905192035 | 80 | 86 | 4.3 | 8.7 | 0.48 | 0.48 | 0.48 | 86 | 1013.3 |
| 20260905191600 | 80 | 111 | 3.5 | 7.8 | 0.46 | 0.46 | 0.46 | 87 | 1013.3 |
| 20260905191037 | 81 | 0 | 0.0 | 3.5 | 0.45 | 0.45 | 0.45 | 87 | 1013.2 |
| 20260905190533 | 81 | 0 | 0.9 | 3.5 | 0.45 | 0.45 | 0.45 | 86 | 1013.3 |
| 20260905190059 | 81 | 0 | 0.0 | 5.2 | 0.43 | 0.43 | 0.43 | 83 | 1013.4 |
| 20260905185537 | 82 | 360 | 0.9 | 6.1 | 0.35 | 0.35 | 0.35 | 81 | 1013.7 |
| 20260905185035 | 83 | 157 | 2.6 | 6.1 | 0.18 | 0.18 | 0.18 | 81 | 1013.5 |
| 20260905184611 | 84 | 0 | 0.0 | 7.0 | 0.09 | 0.09 | 0.09 | 80 | 1013.6 |
| 20260905184035 | 84 | 0 | 0.9 | 7.8 | 0.06 | 0.06 | 0.06 | 78 | 1013.7 |
| 20260905183537 | 86 | 96 | 4.3 | 7.8 | 0.01 | 0.01 | 0.01 | 75 | 1013.5 |
| 20260905183102 | 87 | 28 | 3.5 | 6.1 | 0.00 | 0.00 | 0.00 | 71 | 1013.5 |
| 20260905182537 | 87 | 64 | 1.7 | 7.0 | 0.00 | 0.00 | 0.00 | 70 | 1013.6 |
| 20260905182036 | 87 | 62 | 1.7 | 7.8 | 0.00 | 0.00 | 0.00 | 69 | 1013.6 |
| 20260905181600 | 87 | 45 | 3.5 | 7.8 | 0.00 | 0.00 | 0.00 | 70 | 1013.6 |
| 20260905181033 | 88 | 52 | 3.5 | 8.7 | 0.00 | 0.00 | 0.00 | 70 | 1013.6 |
| 20260905180536 | 88 | 32 | 4.3 | 8.7 | 0.00 | 0.00 | 0.00 | 72 | 1013.7 |
| 20260905175537 | 88 | 64 | 5.2 | 9.6 | 0.00 | 1.45 | 0.00 | 69 | 1013.8 |
| 20260905175036 | 90 | 20 | 3.5 | 7.0 | 0.00 | 1.45 | 0.00 | 63 | 1013.8 |
| 20260905174550 | 90 | 219 | 1.7 | 6.1 | 0.00 | 1.45 | 0.00 | 66 | 1013.9 |
| 20260905174036 | 89 | 16 | 2.6 | 6.1 | 0.00 | 1.45 | 0.00 | 66 | 1014.0 |
| 20260905173537 | 89 | 227 | 1.7 | 5.2 | 0.00 | 1.45 | 0.00 | 67 | 1013.9 |
| 20260905173058 | 89 | 223 | 1.7 | 4.3 | 0.00 | 1.45 | 0.00 | 66 | 1013.9 |
| 20260905172536 | 89 | 170 | 1.7 | 5.2 | 0.00 | 1.45 | 0.00 | 68 | 1013.9 |
| 20260905172037 | 89 | 198 | 1.7 | 5.2 | 0.00 | 1.45 | 0.00 | 68 | 1014.0 |
| 20260905171558 | 88 | 148 | 0.0 | 4.3 | 0.00 | 1.45 | 0.00 | 73 | 1014.1 |
| 20260905171036 | 88 | 169 | 0.9 | 5.2 | 0.00 | 1.45 | 0.00 | 70 | 1014.1 |
| 20260905170538 | 87 | 199 | 1.7 | 5.2 | 0.00 | 1.45 | 0.00 | 72 | 1014.0 |
| 20260905170058 | 87 | 205 | 2.6 | 5.2 | 0.00 | 1.45 | 0.00 | 71 | 1014.1 |
| 20260905165539 | 87 | 217 | 2.6 | 7.0 | 0.00 | 1.67 | 0.00 | 71 | 1014.1 |
| 20260905165040 | 88 | 209 | 2.6 | 7.8 | 0.00 | 1.67 | 0.00 | 70 | 1014.2 |
| 20260905164554 | 88 | 183 | 2.6 | 7.8 | 0.00 | 1.67 | 0.00 | 72 | 1014.2 |
| 20260905164036 | 88 | 171 | 0.9 | 4.3 | 0.00 | 1.67 | 0.00 | 72 | 1014.3 |
| 20260905163535 | 88 | 111 | 0.9 | 4.3 | 0.00 | 1.67 | 0.00 | 68 | 1014.3 |
| 20260905163100 | 88 | 244 | 1.7 | 4.3 | 0.00 | 1.67 | 0.00 | 69 | 1014.4 |
| 20260905162538 | 88 | 227 | 1.7 | 4.3 | 0.00 | 1.67 | 0.00 | 70 | 1014.4 |
| 20260905162036 | 87 | 246 | 1.7 | 5.2 | 0.00 | 1.67 | 0.00 | 69 | 1014.5 |
| 20260905161557 | 87 | 213 | 1.7 | 5.2 | 0.00 | 1.67 | 0.00 | 71 | 1014.5 |
| 20260905161036 | 87 | 219 | 1.7 | 4.3 | 0.00 | 1.67 | 0.00 | 74 | 1014.4 |
| 20260905160533 | 86 | 203 | 1.7 | 4.3 | 0.00 | 1.67 | 0.00 | 73 | 1014.4 |
| 20260905160054 | 86 | 246 | 1.7 | 4.3 | 0.00 | 1.67 | 0.00 | 73 | 1014.4 |
| 20260905155539 | 86 | 0 | 0.0 | 0.0 | 0.00 | 1.67 | 0.00 | 74 | 1014.4 |
| 20260905155039 | 85 | 0 | 0.0 | 0.0 | 0.00 | 1.67 | 0.00 | 74 | 1014.4 |
| 20260905154605 | 85 | 0 | 0.0 | 3.5 | 0.00 | 1.67 | 0.00 | 74 | 1014.4 |
| 20260905154036 | 85 | 0 | 0.0 | 3.5 | 0.00 | 1.67 | 0.00 | 73 | 1014.3 |
| 20260905153536 | 86 | 24 | 0.0 | 3.5 | 0.00 | 1.67 | 0.00 | 74 | 1014.2 |
| 20260905153056 | 86 | 215 | 0.9 | 4.3 | 0.00 | 1.67 | 0.00 | 74 | 1014.2 |
| 20260905152536 | 86 | 0 | 0.0 | 4.3 | 0.00 | 1.67 | 0.00 | 75 | 1014.2 |
| 20260905152033 | 86 | 248 | 1.7 | 4.3 | 0.00 | 1.67 | 0.00 | 73 | 1014.2 |
| 20260905151556 | 86 | 244 | 1.7 | 4.3 | 0.00 | 1.67 | 0.00 | 76 | 1014.2 |
| 20260905151032 | 85 | 229 | 0.9 | 3.5 | 0.00 | 1.67 | 0.00 | 75 | 1014.1 |
| 20260905150539 | 86 | 229 | 1.7 | 4.3 | 0.00 | 1.67 | 0.00 | 76 | 1014.1 |
| 20260905150100 | 86 | 205 | 0.9 | 6.1 | 0.00 | 1.67 | 0.00 | 77 | 1014.3 |
| 20260905145533 | 86 | 219 | 1.7 | 6.1 | 0.00 | 1.67 | 0.00 | 76 | 1014.3 |
| 20260905145033 | 86 | 219 | 3.5 | 6.1 | 0.00 | 1.67 | 0.00 | 78 | 1014.2 |
| 20260905144557 | 86 | 0 | 2.6 | 4.3 | 0.00 | 1.67 | 0.00 | 77 | 1014.2 |
| 20260905144039 | 85 | 217 | 0.0 | 4.3 | 0.00 | 1.67 | 0.00 | 78 | 1014.2 |
| 20260905143536 | 85 | 152 | 0.0 | 2.6 | 0.00 | 1.67 | 0.00 | 77 | 1014.2 |
| 20260905143059 | 85 | 0 | 0.9 | 2.6 | 0.00 | 1.67 | 0.00 | 77 | 1014.2 |
| 20260905142537 | 85 | 0 | 0.9 | 2.6 | 0.00 | 1.67 | 0.00 | 77 | 1014.3 |
| 20260905142036 | 85 | 19 | 0.0 | 2.6 | 0.00 | 1.67 | 0.00 | 77 | 1014.4 |
| 20260905141554 | 85 | 230 | 0.0 | 2.6 | 0.00 | 1.67 | 0.00 | 77 | 1014.4 |
| 20260905141036 | 85 | 0 | 0.0 | 2.6 | 0.00 | 1.67 | 0.00 | 77 | 1014.4 |
| 20260905140533 | 85 | 0 | 0.0 | 2.6 | 0.00 | 1.67 | 0.00 | 77 | 1014.3 |
| 20260905140050 | 86 | 0 | 0.0 | 0.0 | 0.00 | 1.67 | 0.00 | 77 | 1014.3 |
| 20260905135536 | 85 | 0 | 0.0 | 0.9 | 0.00 | 1.67 | 0.00 | 78 | 1014.2 |
| 20260905135033 | 85 | 0 | 0.0 | 1.7 | 0.00 | 1.67 | 0.00 | 79 | 1014.2 |
| 20260905134556 | 85 | 0 | 0.0 | 2.6 | 0.00 | 1.67 | 0.00 | 80 | 1014.1 |
| 20260905134036 | 84 | 123 | 0.0 | 2.6 | 0.00 | 1.67 | 0.00 | 80 | 1014.0 |
| 20260905133538 | 84 | 87 | 0.0 | 2.6 | 0.00 | 1.67 | 0.00 | 81 | 1014.0 |
| 20260905133054 | 84 | 0 | 0.0 | 2.6 | 0.00 | 1.67 | 0.00 | 81 | 1014.1 |
| 20260905132540 | 83 | 0 | 0.0 | 2.6 | 0.00 | 1.67 | 0.00 | 82 | 1014.1 |
| 20260905132040 | 82 | 0 | 0.0 | 0.0 | 0.00 | 1.67 | 0.00 | 83 | 1014.1 |
| 20260905131559 | 82 | 0 | 0.0 | 2.6 | 0.00 | 1.67 | 0.00 | 84 | 1014.1 |
| 20260905131037 | 81 | 0 | 0.0 | 3.5 | 0.00 | 1.67 | 0.00 | 85 | 1014.1 |
| 20260905130536 | 81 | 68 | 0.9 | 3.5 | 0.00 | 1.67 | 0.00 | 86 | 1014.1 |
| 20260905130134 | 81 | 76 | 0.9 | 2.6 | 0.00 | 1.67 | 0.00 | 86 | 1014.0 |
| 20260905125532 | 80 | 0 | 0.9 | 2.6 | 0.00 | 1.67 | 0.00 | 87 | 1014.0 |
| 20260905125037 | 80 | 59 | 0.0 | 0.0 | 0.00 | 1.67 | 0.00 | 87 | 1014.0 |
| 20260905124602 | 79 | 0 | 0.0 | 2.6 | 0.00 | 1.67 | 0.00 | 88 | 1013.9 |
| 20260905124037 | 78 | 0 | 0.9 | 2.6 | 0.00 | 1.67 | 0.00 | 89 | 1013.9 |
| 20260905123536 | 78 | 65 | 0.9 | 2.6 | 0.00 | 1.67 | 0.00 | 90 | 1013.9 |
| 20260905123059 | 77 | 124 | 0.0 | 2.6 | 0.00 | 1.67 | 0.00 | 91 | 1013.8 |
| 20260905122536 | 77 | 0 | 0.0 | 2.6 | 0.00 | 1.67 | 0.00 | 90 | 1013.8 |
| 20260905122036 | 77 | 0 | 0.0 | 2.6 | 0.00 | 1.67 | 0.00 | 91 | 1013.7 |
| 20260905121551 | 77 | 64 | 0.9 | 1.7 | 0.00 | 1.67 | 0.00 | 91 | 1013.7 |
| 20260905121033 | 77 | 52 | 0.0 | 2.6 | 0.00 | 1.67 | 0.00 | 92 | 1013.8 |
| 20260905120540 | 76 | 52 | 0.9 | 2.6 | 0.00 | 1.67 | 0.00 | 92 | 1013.8 |
| 20260905120051 | 76 | 66 | 0.0 | 0.9 | 0.00 | 1.67 | 0.00 | 93 | 1013.6 |
| 20260905115536 | 75 | 0 | 0.0 | 0.0 | 0.00 | 1.68 | 0.00 | 93 | 1013.6 |
| 20260905115036 | 75 | 0 | 0.0 | 0.0 | 0.00 | 1.68 | 0.00 | 93 | 1013.6 |
| 20260905114559 | 75 | 0 | 0.0 | 0.0 | 0.00 | 1.68 | 0.00 | 93 | 1013.6 |
| 20260905114036 | 75 | 0 | 0.0 | 0.0 | 0.00 | 1.68 | 0.00 | 93 | 1013.5 |
| 20260905113537 | 75 | 0 | 0.0 | 0.0 | 0.00 | 1.68 | 0.00 | 93 | 1013.5 |
| 20260905113054 | 75 | 0 | 0.0 | 0.0 | 0.00 | 1.68 | 0.00 | 93 | 1013.4 |
| 20260905112536 | 75 | 0 | 0.0 | 0.0 | 0.00 | 1.68 | 0.00 | 93 | 1013.4 |
| 20260905112037 | 75 | 0 | 0.0 | 0.0 | 0.00 | 1.68 | 0.00 | 93 | 1013.3 |
| 20260905111630 | 75 | 0 | 0.0 | 0.0 | 0.00 | 1.68 | 0.00 | 93 | 1013.3 |
| 20260905111035 | 75 | 0 | 0.0 | 0.0 | 0.00 | 1.68 | 0.00 | 93 | 1013.2 |
| 20260905110533 | 75 | 0 | 0.0 | 0.0 | 0.00 | 1.68 | 0.00 | 93 | 1013.2 |
| 20260905110059 | 75 | 0 | 0.0 | 0.0 | 0.00 | 1.68 | 0.00 | 93 | 1013.2 |
| 20260905105537 | 75 | 0 | 0.0 | 0.9 | 0.00 | 1.68 | 0.00 | 93 | 1013.2 |
| 20260905105038 | 75 | 0 | 0.0 | 1.7 | 0.00 | 1.68 | 0.00 | 93 | 1013.2 |
| 20260905104557 | 75 | 0 | 0.0 | 1.7 | 0.00 | 1.68 | 0.00 | 93 | 1013.2 |
| 20260905104036 | 75 | 27 | 0.0 | 2.6 | 0.00 | 1.68 | 0.00 | 93 | 1013.2 |
| 20260905103536 | 75 | 27 | 0.9 | 2.6 | 0.00 | 1.68 | 0.00 | 93 | 1013.2 |
| 20260905103055 | 75 | 0 | 0.9 | 2.6 | 0.00 | 1.68 | 0.00 | 93 | 1013.3 |
| 20260905102535 | 75 | 27 | 0.0 | 1.7 | 0.00 | 1.68 | 0.00 | 93 | 1013.3 |
| 20260905102036 | 75 | 0 | 0.0 | 0.0 | 0.00 | 1.68 | 0.00 | 93 | 1013.2 |
| 20260905101602 | 75 | 0 | 0.0 | 0.0 | 0.00 | 1.68 | 0.00 | 93 | 1013.2 |
| 20260905101033 | 75 | 0 | 0.0 | 0.0 | 0.00 | 1.68 | 0.00 | 93 | 1013.2 |
| 20260905100533 | 75 | 0 | 0.0 | 0.0 | 0.00 | 1.68 | 0.00 | 93 | 1013.1 |
| 20260905100110 | 75 | 0 | 0.0 | 0.0 | 0.00 | 1.68 | 0.00 | 93 | 1013.1 |
| 20260905095532 | 75 | 0 | 0.0 | 0.0 | 0.00 | 1.68 | 0.00 | 93 | 1013.1 |
| 20260905095032 | 75 | 0 | 0.0 | 1.7 | 0.00 | 1.68 | 0.00 | 93 | 1013.2 |
| 20260905094550 | 75 | 0 | 0.0 | 1.7 | 0.00 | 1.68 | 0.00 | 93 | 1013.1 |
| 20260905094036 | 76 | 27 | 0.0 | 2.6 | 0.00 | 1.68 | 0.00 | 92 | 1013.1 |
| 20260905093533 | 76 | 27 | 0.9 | 2.6 | 0.00 | 1.68 | 0.00 | 92 | 1013.1 |
| 20260905093059 | 76 | 0 | 0.0 | 0.0 | 0.00 | 1.68 | 0.00 | 92 | 1013.1 |
| 20260905092534 | 76 | 0 | 0.0 | 0.0 | 0.00 | 1.68 | 0.00 | 93 | 1013.1 |
| 20260905092033 | 76 | 0 | 0.0 | 0.0 | 0.00 | 1.68 | 0.00 | 92 | 1013.1 |
| 20260905091600 | 76 | 0 | 0.0 | 0.0 | 0.00 | 1.68 | 0.00 | 93 | 1013.1 |
| 20260905091033 | 76 | 0 | 0.0 | 0.0 | 0.00 | 1.68 | 0.00 | 92 | 1013.0 |
| 20260905090533 | 76 | 0 | 0.0 | 0.0 | 0.00 | 1.68 | 0.00 | 92 | 1013.0 |
| 20260905090048 | 76 | 0 | 0.0 | 0.0 | 0.00 | 1.68 | 0.00 | 92 | 1013.0 |
| 20260905085535 | 76 | 0 | 0.0 | 0.0 | 0.00 | 1.68 | 0.00 | 93 | 1013.0 |
| 20260905085036 | 76 | 0 | 0.0 | 0.0 | 0.00 | 1.68 | 0.00 | 93 | 1012.9 |
| 20260905084559 | 76 | 0 | 0.0 | 0.0 | 0.00 | 1.68 | 0.00 | 93 | 1012.9 |
| 20260905084033 | 76 | 0 | 0.0 | 0.0 | 0.00 | 1.68 | 0.00 | 93 | 1013.0 |
| 20260905083533 | 76 | 0 | 0.0 | 0.0 | 0.00 | 1.68 | 0.00 | 93 | 1012.9 |
| 20260905083054 | 76 | 0 | 0.0 | 0.0 | 0.00 | 1.68 | 0.00 | 92 | 1012.9 |
| 20260905082533 | 76 | 0 | 0.0 | 0.0 | 0.00 | 1.68 | 0.00 | 92 | 1012.8 |
| 20260905082035 | 76 | 0 | 0.0 | 0.0 | 0.00 | 1.68 | 0.00 | 92 | 1012.9 |
| 20260905081605 | 76 | 0 | 0.0 | 0.0 | 0.00 | 1.68 | 0.00 | 92 | 1012.8 |
| 20260905081032 | 76 | 0 | 0.0 | 0.0 | 0.00 | 1.68 | 0.00 | 92 | 1012.8 |
| 20260905080533 | 76 | 0 | 0.0 | 0.0 | 0.00 | 1.68 | 0.00 | 92 | 1012.7 |
| 20260905075535 | 76 | 0 | 0.0 | 0.0 | 0.00 | 1.68 | 0.00 | 92 | 1012.8 |
| 20260905075032 | 76 | 0 | 0.0 | 0.0 | 0.00 | 1.68 | 0.00 | 92 | 1012.9 |
| 20260905074558 | 76 | 0 | 0.0 | 0.0 | 0.00 | 1.68 | 0.00 | 92 | 1012.9 |
| 20260905074035 | 76 | 0 | 0.0 | 0.0 | 0.00 | 1.68 | 0.00 | 92 | 1012.9 |
| 20260905073533 | 76 | 0 | 0.0 | 0.0 | 0.00 | 1.68 | 0.00 | 92 | 1013.0 |
| 20260905073053 | 76 | 0 | 0.0 | 0.0 | 0.00 | 1.68 | 0.00 | 92 | 1013.0 |
| 20260905072533 | 76 | 0 | 0.0 | 0.0 | 0.00 | 1.68 | 0.00 | 92 | 1012.9 |
| 20260905072032 | 76 | 0 | 0.0 | 2.6 | 0.00 | 1.68 | 0.00 | 92 | 1013.0 |
| 20260905071555 | 76 | 0 | 0.0 | 2.6 | 0.00 | 1.68 | 0.00 | 92 | 1012.9 |
| 20260905071033 | 76 | 36 | 0.9 | 2.6 | 0.00 | 1.68 | 0.00 | 93 | 1012.9 |
| 20260905070532 | 76 | 36 | 0.9 | 2.6 | 0.00 | 1.68 | 0.00 | 93 | 1013.0 |
| 20260905070101 | 76 | 0 | 0.0 | 0.0 | 0.00 | 1.68 | 0.00 | 92 | 1012.9 |
| 20260905065534 | 76 | 0 | 0.0 | 0.0 | 0.00 | 1.68 | 0.00 | 92 | 1012.8 |
| 20260905065032 | 76 | 0 | 0.0 | 0.0 | 0.00 | 1.68 | 0.00 | 92 | 1012.8 |
| 20260905064600 | 76 | 0 | 0.0 | 0.0 | 0.00 | 1.68 | 0.00 | 92 | 1012.6 |
| 20260905064033 | 76 | 0 | 0.0 | 0.0 | 0.00 | 1.68 | 0.00 | 92 | 1012.6 |
| 20260905063537 | 76 | 0 | 0.0 | 0.0 | 0.00 | 1.68 | 0.00 | 92 | 1012.6 |
| 20260905063100 | 76 | 0 | 0.0 | 0.0 | 0.00 | 1.68 | 0.00 | 92 | 1012.6 |
| 20260905062536 | 76 | 0 | 0.0 | 0.0 | 0.00 | 1.68 | 0.00 | 92 | 1012.6 |
| 20260905062037 | 76 | 0 | 0.0 | 0.0 | 0.00 | 1.68 | 0.00 | 92 | 1012.7 |
| 20260905061611 | 76 | 0 | 0.0 | 0.0 | 0.00 | 1.68 | 0.00 | 92 | 1012.7 |
| 20260905061036 | 76 | 0 | 0.0 | 0.0 | 0.00 | 1.68 | 0.00 | 92 | 1012.7 |
| 20260905060536 | 76 | 0 | 0.0 | 0.0 | 0.00 | 1.68 | 0.00 | 92 | 1012.8 |
| 20260905060050 | 76 | 0 | 0.0 | 0.0 | 0.00 | 1.68 | 0.00 | 92 | 1012.8 |
| 20260905055536 | 76 | 0 | 0.0 | 0.0 | 0.00 | 1.83 | 0.00 | 92 | 1012.8 |
| 20260905055037 | 76 | 0 | 0.0 | 0.0 | 0.00 | 1.83 | 0.00 | 92 | 1012.9 |
| 20260905054558 | 76 | 0 | 0.0 | 0.0 | 0.00 | 1.83 | 0.00 | 92 | 1012.8 |
| 20260905054037 | 76 | 0 | 0.0 | 0.0 | 0.00 | 1.83 | 0.00 | 92 | 1012.7 |
| 20260905053536 | 76 | 0 | 0.0 | 0.0 | 0.00 | 1.83 | 0.00 | 92 | 1012.8 |
| 20260905053057 | 76 | 0 | 0.0 | 0.0 | 0.00 | 1.83 | 0.00 | 92 | 1012.9 |
| 20260905052537 | 76 | 0 | 0.0 | 0.0 | 0.00 | 1.83 | 0.00 | 92 | 1013.0 |
| 20260905052037 | 76 | 0 | 0.0 | 0.0 | 0.00 | 1.83 | 0.00 | 92 | 1013.1 |
| 20260905051551 | 76 | 0 | 0.0 | 0.0 | 0.00 | 1.83 | 0.00 | 92 | 1013.0 |
| 20260905051036 | 76 | 0 | 0.0 | 0.0 | 0.00 | 1.83 | 0.00 | 91 | 1013.0 |
| 20260905050534 | 76 | 0 | 0.0 | 0.0 | 0.00 | 1.83 | 0.00 | 91 | 1013.2 |
| 20260905050050 | 76 | 0 | 0.0 | 0.0 | 0.00 | 1.83 | 0.00 | 91 | 1013.2 |
| 20260905045536 | 76 | 0 | 0.0 | 0.9 | 0.00 | 1.86 | 1.83 | 91 | 1013.3 |
| 20260905045036 | 76 | 0 | 0.0 | 0.9 | 0.00 | 1.86 | 1.83 | 91 | 1013.5 |
| 20260905044605 | 76 | 0 | 0.0 | 0.9 | 0.00 | 1.86 | 1.83 | 91 | 1013.5 |
| 20260905044036 | 76 | 0 | 0.0 | 0.0 | 0.00 | 1.86 | 1.83 | 91 | 1013.5 |
| 20260905043536 | 76 | 0 | 0.0 | 0.0 | 0.00 | 1.86 | 1.83 | 91 | 1013.5 |
| 20260905043053 | 76 | 0 | 0.0 | 0.0 | 0.00 | 1.86 | 1.83 | 91 | 1013.6 |
| 20260905042540 | 76 | 0 | 0.0 | 0.0 | 0.00 | 1.86 | 1.83 | 91 | 1013.8 |
| 20260905042037 | 76 | 0 | 0.0 | 0.0 | 0.00 | 1.86 | 1.83 | 91 | 1013.8 |
| 20260905041601 | 76 | 0 | 0.0 | 1.7 | 0.00 | 1.86 | 1.83 | 91 | 1013.8 |
| 20260905041036 | 76 | 0 | 0.0 | 1.7 | 0.00 | 1.86 | 1.83 | 91 | 1013.9 |
| 20260905040538 | 76 | 0 | 0.0 | 1.7 | 0.00 | 1.86 | 1.83 | 91 | 1013.8 |
| 20260905040059 | 76 | 17 | 0.9 | 1.7 | 0.00 | 1.86 | 1.83 | 91 | 1013.8 |
| 20260905035535 | 76 | 0 | 0.0 | 1.7 | 0.00 | 1.86 | 1.83 | 91 | 1013.9 |
| 20260905035036 | 76 | 0 | 0.0 | 1.7 | 0.00 | 1.86 | 1.83 | 91 | 1014.1 |
| 20260905034554 | 76 | 17 | 0.9 | 2.6 | 0.00 | 1.86 | 1.83 | 91 | 1014.2 |
| 20260905034036 | 77 | 25 | 0.0 | 2.6 | 0.00 | 1.86 | 1.83 | 91 | 1014.1 |
| 20260905033534 | 76 | 25 | 0.9 | 2.6 | 0.00 | 1.86 | 1.83 | 91 | 1014.2 |
| 20260905033050 | 77 | 46 | 0.9 | 1.7 | 0.00 | 1.86 | 1.83 | 90 | 1014.3 |
| 20260905032535 | 77 | 26 | 0.0 | 1.7 | 0.00 | 1.86 | 1.83 | 90 | 1014.3 |
| 20260905032033 | 77 | 0 | 0.0 | 0.9 | 0.00 | 1.86 | 1.83 | 90 | 1014.3 |
| 20260905031550 | 77 | 0 | 0.0 | 1.7 | 0.00 | 1.86 | 1.83 | 90 | 1014.2 |
| 20260905031034 | 77 | 0 | 0.0 | 1.7 | 0.00 | 1.86 | 1.83 | 90 | 1014.2 |
| 20260905030536 | 77 | 19 | 0.9 | 2.6 | 0.00 | 1.86 | 1.83 | 90 | 1014.2 |
| 20260905030120 | 77 | 40 | 0.9 | 2.6 | 0.00 | 1.86 | 1.83 | 90 | 1014.2 |
| 20260905025534 | 77 | 66 | 0.0 | 2.6 | 0.00 | 1.86 | 1.83 | 90 | 1014.2 |
| 20260905025034 | 77 | 54 | 0.0 | 3.5 | 0.00 | 1.86 | 1.83 | 90 | 1014.3 |
| 20260905024559 | 77 | 0 | 0.0 | 3.5 | 0.00 | 1.86 | 1.83 | 90 | 1014.3 |
| 20260905024034 | 77 | 40 | 1.7 | 3.5 | 0.00 | 1.86 | 1.83 | 90 | 1014.3 |
| 20260905023534 | 77 | 57 | 0.9 | 3.5 | 0.00 | 1.86 | 1.83 | 90 | 1014.3 |
| 20260905023053 | 77 | 56 | 0.9 | 3.5 | 0.00 | 1.86 | 1.83 | 90 | 1014.3 |
| 20260905022533 | 77 | 55 | 0.9 | 3.5 | 0.00 | 1.86 | 1.83 | 90 | 1014.2 |
| 20260905022034 | 77 | 72 | 0.0 | 3.5 | 0.00 | 1.86 | 1.83 | 90 | 1014.1 |
| 20260905021550 | 77 | 51 | 1.7 | 3.5 | 0.00 | 1.86 | 1.83 | 89 | 1014.2 |
| 20260905021033 | 77 | 24 | 0.9 | 2.6 | 0.00 | 1.86 | 1.83 | 89 | 1014.2 |
| 20260905020534 | 77 | 57 | 0.9 | 2.6 | 0.00 | 1.86 | 1.83 | 89 | 1014.2 |
| 20260905020100 | 77 | 32 | 0.9 | 2.6 | 0.00 | 1.86 | 1.83 | 89 | 1014.2 |
| 20260905015533 | 78 | 22 | 0.9 | 2.6 | 0.00 | 1.86 | 1.83 | 89 | 1014.2 |
| 20260905015037 | 78 | 0 | 0.0 | 3.5 | 0.00 | 1.86 | 1.83 | 89 | 1014.1 |
| 20260905014556 | 78 | 0 | 0.0 | 3.5 | 0.00 | 1.86 | 1.83 | 89 | 1014.0 |
| 20260905014035 | 78 | 5 | 0.9 | 2.6 | 0.00 | 1.86 | 1.83 | 88 | 1013.9 |
| 20260905013534 | 78 | 5 | 0.9 | 2.6 | 0.00 | 1.86 | 1.83 | 88 | 1013.9 |
| 20260905013053 | 78 | 5 | 0.0 | 1.7 | 0.00 | 1.86 | 1.83 | 88 | 1013.9 |
| 20260905012536 | 78 | 0 | 0.0 | 1.7 | 0.00 | 1.86 | 1.83 | 88 | 1013.9 |